Location: Jetmore
(38.0845°N, 99.8935°W)
Time: 21:56:38
(UTC+00:00)

Cosmos 1140 Rocket - Pass Details

Date: 29 October 2020
Orbit: 744 x 767 km, 74.1° (Epoch: 01 December)

Event Time Altitude Azimuth Distance (km) Brightness Sun altitude
Rises 12:25:58 0° 209° (SSW) 3,176 6.5 -7.9°
Reaches altitude 10° 12:28:22 10° 214° (SW) 2,254 5.7 -7.4°
Maximum altitude 12:33:21 53° 291° (WNW) 915 3.6 -6.5°
Drops below altitude 10° 12:38:21 10° 8° (N) 2,264 5.9 -5.5°
Sets 12:40:47 0° 14° (NNE) 3,193 6.7 -5.0°
